Weather History for Liberia, Costa Rica

Change the Weather History Date:

Thursday, February 27, 2014

  Actual Average Record
Temperature  
Mean Temperature 82 °F -  
Max Temperature 98 °F 92 °F 98 °F (2014)
Min Temperature 67 °F 75 °F 66 °F (2008)
Cooling Degree Days 18    
Growing Degree Days 32 (Base 50)    
Moisture  
Dew Point 59 °F    
Average Humidity 39    
Maximum Humidity 78    
Minimum Humidity 17    
Precipitation  
Precipitation 0.00 in - - ()
Sea Level Pressure  
Sea Level Pressure 29.81 in    
Wind  
Wind Speed 6 mph ()    
Max Wind Speed 13 mph    
Max Gust Speed -    
Visibility 12.0 miles    
Events      
Averages and records for this station are not official NWS values.
T = Trace of Precipitation, MM = Missing Value Source: Averaged Metar Reports

Daily Weather History Graph

Daily Weather History Graph

Search for Another Location

Airport:

Trip Planner

Search our weather history database for the weather conditions in past years. The results will help you decide how hot, cold, wet, or windy it might be!

Date:

Astronomy

Feb. 27, 2014 Rise Set
Actual Time 5:57 AM CST 5:52 PM CST
Civil Twilight 5:36 AM CST 6:13 PM CST
Nautical Twilight 5:11 AM CST 6:37 PM CST
Astronomical Twilight 4:47 AM CST 7:02 PM CST
Moon 4:16 AM CST (2/27) 4:25 PM CST (2/27)
Length of Visible Light 12h 36m
Length of Day
11h 54m
Waning Crescent, 4% of the Moon is Illuminated
Feb 27
Waning Crescent
Mar 1
New
Mar 8
First Quarter
Mar 16
Full
Mar 23
Last Quarter

Hourly Weather History & Observations

Time (CST) Temp. Heat Index Dew Point Humidity Pressure Visibility Wind Dir Wind Speed Gust Speed Precip Events Conditions
6:00 AM 68 °F - 61 °F 72% 29.86 in 12 mi East 4.6 mph - -   Clear
6:00 AM 68.0 °F - 60.8 °F 78% 29.85 in - East 4.6 mph - N/A   Clear
7:00 AM 71.6 °F - 60.8 °F 69% 29.88 in - NE 5.8 mph - N/A   Clear
8:00 AM 77.0 °F - 60.8 °F 57% 29.89 in - SE 5.8 mph - N/A   Clear
9:00 AM 84 °F - 59 °F 33% 29.91 in 12 mi West 4.6 mph - -  
9:00 AM 84.2 °F 83.8 °F 59.0 °F 42% 29.90 in - West 4.6 mph - N/A   Clear
10:00 AM 89.6 °F 88.9 °F 59.0 °F 36% 29.88 in - SE 5.8 mph - N/A   Clear
11:00 AM 93.2 °F 92.6 °F 59.0 °F 32% 29.86 in - WSW 4.6 mph - N/A   Clear
12:00 PM 94 °F - 54 °F 17% 29.83 in 12 mi NNW 5.8 mph - -  
12:00 PM 95.0 °F 92.7 °F 53.6 °F 25% 29.81 in - NNW 5.8 mph - N/A   Clear
1:00 PM 96.8 °F 94.4 °F 53.6 °F 23% 29.77 in - NW 11.5 mph - N/A   Clear
2:00 PM 95.0 °F 93.7 °F 57.2 °F 28% 29.74 in - WNW 12.7 mph - N/A   Clear
3:00 PM 95 °F - 57 °F 19% 29.75 in 12 mi WNW 11.5 mph - -  
3:00 PM 95.0 °F 93.7 °F 57.2 °F 28% 29.73 in - WNW 11.5 mph - N/A   Clear
4:00 PM 95.0 °F 95.2 °F 60.8 °F 32% 29.72 in - West 10.4 mph - N/A   Clear
5:00 PM 93.2 °F 92.6 °F 59.0 °F 32% 29.73 in - West 8.1 mph - N/A   Clear
6:00 PM 90 °F - 59 °F 26% 29.76 in 12 mi East 5.8 mph - -  
6:00 PM 89.6 °F 88.9 °F 59.0 °F 36% 29.74 in - East 5.8 mph - N/A   Clear
7:00 PM 86.0 °F 86.1 °F 60.8 °F 43% 29.78 in - East 4.6 mph - N/A   Clear
8:00 PM 82.4 °F 83.4 °F 62.6 °F 51% 29.81 in - ESE 6.9 mph - N/A   Clear